Weather History for KMEM - March, 2014

Change the Weather History Date:

Tuesday, March 4, 2014

  Actual Average Record
Temperature  
Mean Temperature 27 °F 50 °F  
Max Temperature 34 °F 60 °F 81 °F (1963)
Min Temperature 19 °F 41 °F 16 °F (1893)
Degree Days  
Heating Degree Days 38 15  
Month to date heating degree days 103 61  
Since 1 July heating degree days 2929 2511  
Cooling Degree Days 0 0  
Month to date cooling degree days 0 0  
Year to date cooling degree days 0 3  
Moisture  
Dew Point 22 °F    
Average Humidity 81    
Maximum Humidity 92    
Minimum Humidity 69    
Precipitation  
Precipitation 0.00 in 0.16 in 2.37 in (1964)
Month to date precipitation 2.40 0.62  
Year to date precipitation 10.52 8.99  
Snow  
Snow 0.00 in 0.00 in 2.60 in (1917)
Month to date snowfall 0.5 0.1  
Since 1 July snowfall 0.8 3.5  
Snow Depth 1.00 in    
Sea Level Pressure  
Sea Level Pressure 30.22 in    
Wind  
Wind Speed 6 mph (NE)    
Max Wind Speed 13 mph    
Max Gust Speed 18 mph    
Visibility 8 miles    
Events      
T = Trace of Precipitation, MM = Missing Value Source: NWS Daily Summary

Daily Weather History Graph

Daily Weather History Graph

Search for Another Location

Airport or City:

Trip Planner

Search our weather history database for the weather conditions in past years. The results will help you decide how hot, cold, wet, or windy it might be!

Date:

Astronomy

Mar. 04, 2014 Rise Set
Actual Time 6:25 AM CST 5:58 PM CST
Civil Twilight 6:00 AM CST 6:23 PM CST
Nautical Twilight 5:30 AM CST 6:52 PM CST
Astronomical Twilight 5:01 AM CST 7:22 PM CST
Moon 8:21 AM CST (3/4) 9:54 PM CST (3/4)
Length of Visible Light 12h 23m
Length of Day
11h 32m
Waxing Crescent, 15% of the Moon is Illuminated
Mar 4
Waxing Crescent
Mar 8
First Quarter
Mar 16
Full
Mar 23
Last Quarter
Mar 30
New

Hourly Weather History & Observations

Time (CST) Temp. Windchill Dew Point Humidity Pressure Visibility Wind Dir Wind Speed Gust Speed Precip Events Conditions
12:38 AM 21.2 °F 10.9 °F 15.8 °F 80% 30.31 in 10.0 mi ENE 9.2 mph - N/A   Overcast
12:54 AM 21.0 °F 10.6 °F 15.1 °F 78% 30.32 in 10.0 mi NE 9.2 mph - N/A   Overcast
1:54 AM 21.9 °F 11.7 °F 16.0 °F 78% 30.29 in 10.0 mi East 9.2 mph - N/A   Overcast
2:54 AM 21.0 °F 10.6 °F 16.0 °F 81% 30.26 in 10.0 mi East 9.2 mph - N/A   Overcast
3:23 AM 21.2 °F 10.9 °F 15.8 °F 80% 30.23 in 10.0 mi ENE 9.2 mph - N/A   Scattered Clouds
3:54 AM 21.0 °F 13.4 °F 16.0 °F 81% 30.26 in 10.0 mi ENE 5.8 mph - N/A   Scattered Clouds
4:54 AM 19.9 °F 13.4 °F 15.1 °F 81% 30.25 in 10.0 mi East 4.6 mph - N/A   Partly Cloudy
5:54 AM 19.9 °F 11.1 °F 15.1 °F 81% 30.24 in 10.0 mi NE 6.9 mph - N/A   Scattered Clouds
6:54 AM 19.9 °F 12.1 °F 16.0 °F 85% 30.26 in 10.0 mi NNE 5.8 mph - N/A   Overcast
7:54 AM 21.0 °F 16.2 °F 17.1 °F 85% 30.28 in 9.0 mi ENE 3.5 mph - N/A   Overcast
8:54 AM 23.0 °F - 17.1 °F 78% 30.30 in 10.0 mi Calm Calm - N/A   Overcast
9:38 AM 24.8 °F 16.9 °F 19.4 °F 80% 30.28 in 10.0 mi North 6.9 mph - N/A   Overcast
9:54 AM 25.0 °F 19.3 °F 18.0 °F 75% 30.29 in 10.0 mi North 4.6 mph - N/A   Overcast
10:12 AM 24.8 °F 19.1 °F 19.4 °F 80% 30.28 in 10.0 mi North 4.6 mph - N/A   Overcast
10:27 AM 26.6 °F 21.2 °F 19.4 °F 74% 30.27 in 10.0 mi NNE 4.6 mph - N/A   Overcast
10:54 AM 26.1 °F 20.5 °F 19.9 °F 78% 30.28 in 10.0 mi NW 4.6 mph - N/A   Overcast
11:54 AM 28.9 °F 22.8 °F 21.9 °F 75% 30.25 in 10.0 mi North 5.8 mph - N/A   Mostly Cloudy
12:01 PM 28.4 °F 22.2 °F 21.2 °F 74% 30.24 in 10.0 mi NNE 5.8 mph - N/A   Overcast
12:54 PM 30.9 °F - 23.0 °F 72% 30.22 in 10.0 mi Calm Calm - N/A   Overcast
1:54 PM 33.1 °F 28.7 °F 25.0 °F 72% 30.19 in 10.0 mi North 4.6 mph - N/A   Overcast
2:54 PM 34.0 °F 29.8 °F 25.0 °F 70% 30.18 in 10.0 mi NE 4.6 mph - N/A   Overcast
3:10 PM 33.8 °F 29.6 °F 24.8 °F 70% 30.17 in 10.0 mi ENE 4.6 mph - N/A   Overcast
3:54 PM 33.1 °F 26.1 °F 25.0 °F 72% 30.18 in 10.0 mi ENE 8.1 mph - N/A   Overcast
4:23 PM 32.0 °F 24.8 °F 24.8 °F 75% 30.17 in 10.0 mi NE 8.1 mph - N/A   Overcast
4:54 PM 30.9 °F 23.5 °F 25.0 °F 79% 30.17 in 10.0 mi NE 8.1 mph - N/A   Overcast
5:54 PM 30.0 °F 22.4 °F 24.1 °F 79% 30.16 in 10.0 mi NE 8.1 mph - N/A   Mostly Cloudy
6:54 PM 28.9 °F 21.1 °F 25.0 °F 85% 30.17 in 7.0 mi ENE 8.1 mph - N/A   Scattered Clouds
7:19 PM 28.4 °F 21.2 °F 24.8 °F 86% 30.16 in 7.0 mi NNE 6.9 mph - N/A   Mostly Cloudy
7:54 PM 28.0 °F 20.8 °F 25.0 °F 88% 30.17 in 6.0 mi North 6.9 mph - N/A   Overcast
8:54 PM 28.0 °F 20.8 °F 25.0 °F 88% 30.19 in 7.0 mi NNE 6.9 mph - N/A   Overcast
9:36 PM 28.4 °F 22.2 °F 24.8 °F 86% 30.20 in 5.0 mi ENE 5.8 mph - N/A   Overcast
9:54 PM 28.9 °F 21.1 °F 26.1 °F 89% 30.19 in 5.0 mi East 8.1 mph - N/A   Overcast
9:58 PM 28.4 °F 20.4 °F 26.6 °F 93% 30.17 in 2.0 mi ESE 8.1 mph - N/A   Overcast
10:32 PM 28.4 °F 20.4 °F 26.6 °F 93% 30.16 in 3.0 mi East 8.1 mph - N/A   Overcast
10:49 PM 28.4 °F 20.4 °F 26.6 °F 93% 30.17 in 2.0 mi ESE 8.1 mph - N/A   Overcast
10:54 PM 28.9 °F 21.9 °F 26.1 °F 89% 30.18 in 2.0 mi ESE 6.9 mph - N/A   Overcast
11:27 PM 30.2 °F 22.6 °F 26.6 °F 86% 30.16 in 1.5 mi East 8.1 mph - N/A   Overcast
11:54 PM 30.0 °F 23.2 °F 27.0 °F 88% 30.16 in 1.5 mi East 6.9 mph - N/A   Overcast